Lapse_Rate
5.8 5.6 5.5 5.6 5.5 5.4 5.5 5.6 5.5 5.7 5.4 5.4 5.4 5.5 5.6 5.5 5.7 5.8 5.5 5.5 5.6 5.9 6.2 6.6 6.7 6.6 6.4 6.5 6.7 6.8 6.8 6.9
5.6 5.8 5.7 5.7 5.3 5.4 5.5 5.4 5.5 5.4 5.3 5.6 5.5 5.4 5.6 5.7 5.8 5.7 5.4 5.3 5.5 5.9 6.1 5.9 6.0 6.0 5.6 5.4 5.8 6.4 6.5 6.7
5.6 5.6 5.7 5.5 5.2 5.2 5.4 5.4 5.3 5.4 5.3 5.2 5.3 5.5 5.7 5.8 5.8 5.6 5.1 5.1 5.3 5.3 5.5 5.7 5.4 5.2 5.2 5.2 5.4 5.6 6.0 6.3
5.5 5.5 5.8 5.6 5.4 5.4 5.5 5.0 5.0 5.1 5.3 5.3 5.4 5.6 5.7 5.6 5.4 5.4 4.8 5.0 4.9 5.0 4.9 5.0 4.9 5.0 4.9 5.0 5.2 5.4 5.7 6.0
5.6 5.8 6.0 5.9 5.4 5.2 5.0 5.0 4.9 5.1 5.3 5.5 5.5 5.7 5.8 5.4 5.2 5.4 4.9 4.7 4.9 4.8 4.9 4.8 4.6 4.7 4.7 4.7 4.6 4.4 4.4 5.0
5.8 6.0 5.9 5.4 5.1 4.9 4.8 4.9 5.0 5.2 5.3 5.4 5.4 5.5 5.6 5.2 5.4 5.5 5.5 4.9 4.5 4.6 4.8 4.7 4.5 4.3 4.1 4.2 4.0 3.8 3.2 3.3
5.9 6.1 5.6 5.2 5.1 4.7 4.8 5.0 5.2 5.2 5.1 5.3 5.3 5.5 5.5 5.6 5.8 5.7 5.5 5.0 4.6 4.6 4.6 4.6 4.3 4.1 4.1 3.5 3.4 3.1 3.1 2.9
6.1 5.9 5.2 5.2 5.0 4.9 4.8 5.0 5.1 5.0 5.0 5.2 5.3 5.3 5.5 5.5 5.9 5.8 5.4 5.1 4.7 4.5 4.3 4.1 4.0 4.2 4.1 3.9 3.5 3.2 2.8 2.9
6.1 5.7 5.4 5.2 4.9 4.8 4.8 4.9 5.1 5.0 4.9 5.1 5.2 5.4 5.6 5.6 5.8 5.6 5.4 5.1 4.6 4.3 4.2 3.9 3.7 3.8 4.3 4.1 3.7 3.2 3.0 2.8
5.8 5.5 5.2 4.9 4.7 4.9 5.0 4.9 4.8 4.9 5.0 5.0 5.1 5.5 5.7 5.7 5.9 5.5 5.3 5.1 4.6 4.4 4.2 4.0 3.8 3.7 4.0 4.3 4.0 3.6 3.2 3.1
5.5 5.3 5.1 4.8 4.7 5.0 5.0 4.7 4.9 4.8 4.8 4.7 5.1 5.5 5.5 5.6 5.8 5.5 5.3 5.0 4.6 4.4 4.4 4.3 3.7 3.8 3.8 4.1 4.0 3.7 3.3 3.1
5.5 5.4 5.1 4.9 4.9 4.8 5.0 4.7 4.7 4.8 4.8 4.8 5.1 5.5 5.5 5.6 5.8 5.6 5.4 4.9 4.6 4.5 4.2 4.0 3.9 3.7 3.9 4.0 4.0 3.8 3.8 3.5
5.4 5.3 4.9 4.9 4.8 4.8 4.9 4.6 4.5 4.8 4.8 4.8 5.1 5.4 5.5 5.6 5.7 5.6 5.3 5.0 4.6 4.6 4.4 4.3 3.9 3.6 3.5 3.6 3.8 3.9 3.7 3.9
5.1 5.0 4.7 4.8 4.6 4.8 4.7 4.5 4.5 4.7 4.8 4.9 5.1 5.4 5.5 5.6 5.7 5.6 5.2 5.0 4.6 4.2 4.2 4.2 4.3 3.9 3.7 3.6 3.6 3.7 4.1 3.4
4.7 4.8 4.6 4.8 4.7 4.8 4.6 4.6 4.7 4.8 4.9 5.0 5.1 5.3 5.5 5.6 5.6 5.5 5.3 5.1 4.8 4.5 4.4 4.2 4.2 4.1 4.0 4.0 3.9 3.7 3.9 3.7
4.8 5.0 4.9 4.9 4.6 4.7 4.6 4.8 4.8 4.7 4.9 5.0 5.1 5.2 5.5 5.5 5.5 5.4 5.3 5.1 4.8 4.5 4.3 4.4 4.3 4.1 4.2 4.2 4.1 4.0 4.1 4.0
5.2 5.1 4.9 4.6 4.7 4.6 4.8 4.8 4.8 4.7 5.0 5.0 5.1 5.3 5.6 5.6 5.5 5.5 5.3 5.1 4.8 4.7 4.5 4.6 4.5 4.5 4.3 4.3 4.4 4.5 4.8 4.7
4.9 4.8 4.9 4.7 4.6 4.9 4.8 4.8 4.7 4.8 5.0 5.0 5.0 5.4 5.7 5.8 5.7 5.5 5.4 5.2 5.1 4.7 4.6 4.7 4.8 4.8 4.7 4.9 5.1 5.3 5.5 5.4
4.9 4.8 4.8 4.8 4.6 5.1 4.8 4.7 4.7 4.9 4.9 4.9 5.1 5.6 5.9 5.8 5.8 5.6 5.5 5.4 5.0 4.7 4.7 4.8 5.0 5.5 5.5 5.6 5.7 5.7 5.8 5.6
Wind_Speed
14 13 11 11 9 12 12 12 17 18 17 18 17 15 14 17 17 19 21 22 22 19 18 19 20 11 10 11 12 11 11 11
12 10 9 11 13 12 12 12 12 8 8 9 8 9 7 9 12 18 17 20 21 20 19 19 19 9 11 13 11 14 10 12
12 10 10 13 10 9 11 10 8 6 5 7 4 6 6 9 12 15 19 22 22 21 21 17 19 10 11 12 13 10 8 10
9 10 11 11 9 10 8 8 7 9 11 10 9 9 9 5 5 6 15 19 21 22 23 20 18 16 10 12 12 14 9 10
7 9 11 8 8 7 7 6 7 13 15 8 8 7 6 5 6 5 11 16 17 20 21 21 18 16 12 11 11 10 9 11
9 11 11 11 7 7 7 7 9 10 10 8 5 6 5 4 5 8 5 9 12 16 19 20 18 13 17 13 13 11 8 7
13 10 12 8 7 8 7 7 9 8 6 8 7 7 9 6 7 7 7 4 6 13 16 19 20 14 16 13 13 11 10 8
9 12 8 10 8 7 7 7 7 6 6 6 7 6 7 7 7 6 8 6 5 7 12 15 16 15 21 18 10 11 7 9
11 10 9 7 6 6 7 7 5 6 6 6 6 6 4 4 5 4 5 5 5 13 12 17 17 16 22 19 9 9 10 7
11 9 8 7 6 5 6 5 6 7 6 5 6 6 6 6 6 7 4 8 11 12 13 15 17 14 21 18 9 11 11 6
9 8 7 5 4 3 3 3 5 6 7 6 5 6 7 7 7 6 6 10 11 10 12 13 14 13 21 16 10 11 12 7
8 7 6 5 2 3 1 6 6 6 6 5 6 6 6 8 5 7 8 11 8 7 9 9 9 10 18 12 12 12 13 11
7 7 6 5 2 4 6 6 6 5 5 6 6 6 5 6 7 8 13 7 10 10 10 7 7 10 16 14 14 13 12 10
7 7 6 2 3 5 6 6 5 5 6 6 6 6 6 6 7 9 11 8 8 11 9 7 7 11 14 15 15 15 13 7
7 6 5 4 5 5 5 5 6 5 6 6 6 7 6 6 7 8 9 11 6 7 7 6 8 11 14 15 15 15 15 5
7 6 3 5 6 4 5 5 5 5 6 6 6 6 6 6 7 8 11 10 10 11 6 5 10 11 14 17 14 14 14 9
7 7 5 6 5 5 5 5 5 5 6 6 5 6 5 7 7 9 9 9 7 7 6 5 6 10 31 31 21 12 13 7
7 7 5 5 5 5 5 5 6 7 7 7 8 8 7 8 9 9 10 10 7 9 7 6 6 13 32 31 29 12 11 11
7 5 5 5 3 5 6 7 8 8 7 8 8 8 7 8 9 9 10 9 8 9 8 8 9 13 31 31 27 11 11 11
Wind_Direction
82 73 72 63 49 44 47 42 31 18 11 11 4 358 26 37 40 37 31 18 5 5 0 353 351 347 348 344 336 337 325 324
89 77 69 64 55 46 43 41 33 24 20 8 3 6 6 13 49 41 31 15 3 11 0 352 350 350 349 344 337 340 336 337
85 74 72 71 58 44 47 37 29 10 28 8 342 352 347 355 50 41 31 12 14 15 1 353 349 343 348 350 345 340 341 343
102 89 80 71 56 49 47 36 21 10 21 17 4 356 343 12 30 39 36 23 15 7 357 351 347 351 349 349 348 343 346 343
83 93 80 72 64 61 34 34 35 31 26 15 360 355 354 21 16 31 42 27 14 3 355 353 347 357 354 346 346 344 346 344
87 99 91 73 58 45 26 17 40 35 20 359 353 348 341 2 18 14 30 14 10 358 1 355 347 356 352 346 340 339 348 340
91 105 87 78 54 41 13 24 41 24 20 357 352 349 2 16 20 16 4 344 351 353 358 359 351 353 354 344 335 334 342 332
89 84 83 76 58 40 20 21 32 4 358 346 352 10 9 16 18 12 2 356 352 349 1 356 351 356 351 342 337 332 332 345
87 89 78 66 65 44 49 8 12 341 328 342 2 3 16 23 17 7 352 348 334 352 5 354 349 354 350 344 336 336 327 350
98 86 82 70 33 48 64 10 328 321 335 10 13 19 28 21 14 358 335 332 352 12 4 352 345 352 351 345 338 330 330 328
102 92 90 80 39 54 79 333 330 2 20 21 21 19 28 20 11 351 338 339 359 9 354 347 339 355 351 345 338 330 332 325
109 109 99 95 39 351 46 35 30 23 20 24 13 16 24 19 2 345 338 347 4 343 338 337 347 358 351 342 338 333 328 328
116 110 98 78 29 11 75 49 28 20 25 35 9 13 22 15 358 344 342 347 345 335 331 337 9 357 352 347 339 335 329 329
109 101 89 49 35 60 67 53 27 25 35 30 12 12 19 7 351 341 338 333 327 328 333 349 16 1 354 348 343 339 333 322
101 91 88 52 68 67 66 53 36 31 37 28 16 13 20 357 339 333 331 325 320 324 336 19 15 2 3 353 348 345 347 15
116 108 87 91 70 50 58 59 47 39 33 31 13 11 17 347 340 333 328 327 334 347 2 47 22 11 8 1 355 353 359 20
114 106 71 72 64 57 61 72 59 52 35 22 19 6 8 345 331 330 328 331 339 358 13 26 36 14 11 8 7 357 358 16
97 92 75 77 61 55 63 72 62 52 39 21 20 5 2 347 337 337 345 350 357 5 9 15 29 13 12 9 9 2 358 0
93 85 78 77 56 66 69 58 53 47 39 18 13 360 350 346 346 351 2 356 4 6 13 13 30 13 10 9 10 0 359 353